EW9464 Weather Reports


time (UTC)temp
C
wind
direction
speed
KPH
gust
KPH
rain 1hr
cm
rain 24hr
cm
rain mn
cm
humidity
%
barometer
mb
20260906071657 17 360 9.7 20.9 0.00 0.00 0.00 77 1011.6
20260906070058 17 360 9.7 17.7 0.00 0.00 0.00 78 1011.6
20260906064556 17 360 4.8 12.9 0.00 0.00 0.00 81 1011.8
20260906063056 17 360 4.8 9.7 0.00 0.00 0.00 81 1012.3
20260906061557 17 360 4.8 12.9 0.00 0.00 0.00 80 1012.4
20260906060053 17 360 4.8 12.9 0.00 0.00 0.00 79 1012.4
20260906054602 17 360 4.8 14.5 0.00 0.00 0.00 77 1012.6
20260906053058 17 360 6.4 14.5 0.00 0.00 0.00 75 1012.7
20260906051606 17 360 6.4 16.1 0.00 0.00 0.00 73 1012.8
20260906050048 17 360 4.8 9.7 0.00 0.00 0.00 72 1012.9
20260906044554 17 360 4.8 14.5 0.00 0.00 0.00 72 1012.9
20260906043047 17 360 6.4 16.1 0.00 0.00 0.00 73 1013.0
20260906041550 17 360 6.4 12.9 0.00 0.00 0.00 72 1012.9
20260906040123 17 360 8.0 17.7 0.00 0.00 0.00 62 1013.1
20260906034550 17 360 6.4 14.5 0.00 0.00 0.00 57 1013.1
20260906033100 17 360 6.4 12.9 0.00 0.00 0.00 54 1013.3
20260906031540 17 360 6.4 16.1 0.00 0.00 0.00 55 1013.0
20260906030040 17 360 8.0 16.1 0.00 0.00 0.00 60 1013.1
20260906024540 17 360 6.4 16.1 0.00 0.00 0.00 69 1012.8
20260906023038 17 360 11.3 16.1 0.00 0.00 0.00 73 1012.6
20260906021509 17 360 8.0 14.5 0.00 0.00 0.00 75 1012.8
20260906020008 17 360 8.0 12.9 0.00 0.00 0.00 73 1012.8
20260906014538 17 360 4.8 14.5 0.00 0.00 0.00 70 1012.6
20260906013037 17 360 6.4 14.5 0.00 0.00 0.00 68 1012.4
20260906011537 17 360 8.0 16.1 0.00 0.00 0.00 73 1012.2
20260906010034 17 360 8.0 14.5 0.00 0.00 0.00 75 1011.9
20260906004532 17 360 8.0 20.9 0.00 0.00 0.00 78 1011.7
20260906003032 17 360 9.7 20.9 0.00 0.00 0.00 82 1011.4
20260906001534 17 360 9.7 19.3 0.00 0.00 0.00 83 1011.2
20260906000029 17 360 8.0 19.3 0.00 0.00 0.00 84 1011.1
20260905234529 18 360 11.3 19.3 0.00 0.00 0.00 83 1011.1
20260905233028 18 360 9.7 19.3 0.00 0.00 0.00 83 1011.1
20260905231559 18 360 8.0 17.7 0.00 0.00 0.00 83 1010.9
20260905230105 19 360 9.7 22.5 0.00 0.00 0.00 82 1010.9
20260905224603 20 360 8.0 20.9 0.00 0.00 0.00 83 1011.0
20260905223026 20 360 8.0 22.5 0.00 0.00 0.00 82 1011.1
20260905221558 20 360 9.7 24.1 0.00 0.00 0.00 82 1011.2
20260905220055 20 360 9.7 27.4 0.00 0.00 0.00 81 1011.2
20260905214555 21 360 11.3 20.9 0.00 0.00 0.00 80 1011.2
20260905213057 21 360 9.7 22.5 0.00 0.00 0.00 79 1011.1
20260905211550 21 360 6.4 25.7 0.00 0.00 0.00 78 1011.3
20260905210058 21 360 6.4 22.5 0.00 0.00 0.00 79 1011.2
20260905204518 21 360 6.4 17.7 0.00 0.00 0.00 79 1011.3
20260905203019 21 360 6.4 22.5 0.00 0.00 0.00 79 1011.3
20260905201521 20 360 6.4 19.3 0.00 0.00 0.00 78 1011.1
20260905200116 20 360 6.4 20.9 0.00 0.00 0.00 77 1011.1
20260905194517 20 360 4.8 19.3 0.00 0.00 0.00 77 1011.3
20260905193014 18 360 8.0 24.1 0.00 0.00 0.00 81 1011.3
20260905191511 17 360 8.0 22.5 0.00 0.00 0.00 83 1011.1
20260905190011 17 360 8.0 20.9 0.00 0.00 0.00 82 1011.3
20260905184524 16 360 9.7 22.5 0.00 0.00 0.00 81 1011.2
20260905183008 16 360 11.3 22.5 0.00 0.00 0.00 80 1011.3
20260905181503 16 360 11.3 19.3 0.00 0.00 0.00 78 1011.8
20260905180001 16 360 9.7 19.3 0.00 0.00 0.00 81 1011.9
20260905174559 16 360 8.0 16.1 0.00 0.00 0.00 68 1012.6
20260905173118 15 360 8.0 16.1 0.00 0.00 0.00 61 1013.4
20260905171553 15 360 11.3 20.9 0.00 0.00 0.00 73 1013.6
20260905170021 16 360 11.3 20.9 0.00 0.00 0.00 78 1013.6
20260905164524 19 360 20.9 33.8 0.00 0.00 0.00 83 1013.5
20260905163046 21 360 9.7 19.3 0.00 0.00 0.00 83 1013.4
20260905161602 21 360 4.8 17.7 0.00 0.00 0.00 83 1013.2
20260905160015 21 360 4.8 20.9 0.00 0.00 0.00 83 1013.0
20260905154513 21 360 8.0 19.3 0.00 0.00 0.00 83 1013.4
20260905153016 21 360 9.7 24.1 0.00 0.00 0.00 83 1013.5
20260905151517 21 360 6.4 19.3 0.00 0.00 0.00 82 1013.0
20260905150006 21 360 6.4 19.3 0.00 0.00 0.00 82 1012.9
20260905144512 20 360 3.2 22.5 0.00 0.00 0.00 81 1012.7
20260905143104 20 360 4.8 19.3 0.00 0.00 0.00 82 1012.8
20260905141600 20 360 8.0 19.3 0.00 0.00 0.00 82 1012.9
20260905140055 20 360 6.4 19.3 0.00 0.00 0.00 83 1012.8
20260905134556 20 360 6.4 22.5 0.00 0.00 0.00 83 1012.8
20260905133050 20 360 6.4 16.1 0.00 0.00 0.00 83 1012.8
20260905131553 20 360 4.8 17.7 0.00 0.00 0.00 82 1013.2
20260905130048 20 360 6.4 22.5 0.00 0.00 0.00 82 1013.4
20260905124549 20 360 3.2 16.1 0.00 0.00 0.00 81 1013.6
20260905123016 19 360 3.2 16.1 0.00 0.00 0.00 77 1013.4
20260905121513 19 360 6.4 12.9 0.00 0.00 0.00 75 1013.3
20260905120010 18 360 3.2 12.9 0.00 0.00 0.00 76 1013.2
20260905114510 18 360 6.4 16.1 0.00 0.00 0.00 77 1013.0
20260905113012 18 360 6.4 14.5 0.00 0.00 0.00 77 1012.9
20260905111509 18 360 4.8 17.7 0.00 0.00 0.00 76 1012.8
20260905110039 18 360 6.4 16.1 0.00 0.00 0.00 76 1012.6
20260905104543 18 360 4.8 14.5 0.00 0.00 0.00 78 1012.3
20260905103034 18 360 8.0 14.5 0.00 0.00 0.00 79 1012.4
20260905101534 19 360 8.0 17.7 0.00 0.00 0.00 80 1012.4
20260905100106 19 360 6.4 17.7 0.00 0.00 0.00 81 1012.1
20260905094544 19 360 6.4 22.5 0.00 0.00 0.00 81 1012.2
20260905093059 19 360 8.0 17.7 0.00 0.00 0.00 81 1012.1
20260905091611 19 360 6.4 16.1 0.00 0.00 0.00 81 1012.2
20260905090053 19 360 8.0 14.5 0.00 0.00 0.00 82 1012.3
20260905084552 19 360 3.2 12.9 0.00 0.00 0.00 83 1012.4
20260905083106 19 360 4.8 16.1 0.00 0.00 0.00 83 1012.7
20260905081549 20 310 3.2 12.9 0.00 0.00 0.00 83 1012.6
20260905080044 20 360 6.4 12.9 0.00 0.00 0.00 83 1012.8
20260905074547 20 360 3.2 8.0 0.00 0.00 0.00 83 1013.0
20260905073042 20 360 1.6 12.9 0.00 0.00 0.00 83 1013.0